Satellite: NOAA-11
Catalog number: 19531
Epoch time:      10203.31470061
Element set:     153
Inclination:      098.7693 deg
RA of node:       291.7424 deg
Eccentricity:    0.0012313
Arg of perigee:   050.1368 deg
Mean anomaly:     310.0895 deg
Mean motion:   14.14930159 rev/day
Decay rate:      -1.22e-06 rev/day^2
Epoch rev:           12610
Checksum:              251

Satellite: NOAA-12
Catalog number: 21263
Epoch time:      10203.51305183
Element set:     641
Inclination:      098.7645 deg
RA of node:       216.6666 deg
Eccentricity:    0.0013402
Arg of perigee:   065.3136 deg
Mean anomaly:     294.9440 deg
Mean motion:   14.25644640 rev/day
Decay rate:        1.6e-07 rev/day^2
Epoch rev:           99743
Checksum:              284

Satellite: MET-3/5
Catalog number: 21655
Epoch time:      10202.82198794
Element set:     867
Inclination:      082.5578 deg
RA of node:       284.1669 deg
Eccentricity:    0.0012098
Arg of perigee:   261.8334 deg
Mean anomaly:     098.1450 deg
Mean motion:   13.17022003 rev/day
Decay rate:        5.1e-07 rev/day^2
Epoch rev:           91023
Checksum:              297

Satellite: MET-2/21
Catalog number: 22782
Epoch time:      10203.58051172
Element set:     836
Inclination:      082.5458 deg
RA of node:       224.3604 deg
Eccentricity:    0.0021034
Arg of perigee:   306.3386 deg
Mean anomaly:     053.5817 deg
Mean motion:   13.83645263 rev/day
Decay rate:        3.5e-07 rev/day^2
Epoch rev:           85297
Checksum:              290

Satellite: OKEAN-4
Catalog number: 23317
Epoch time:      10203.74880827
Element set:     291
Inclination:      082.5424 deg
RA of node:       320.6652 deg
Eccentricity:    0.0023620
Arg of perigee:   122.0925 deg
Mean anomaly:     238.2590 deg
Mean motion:   14.82837012 rev/day
Decay rate:        4.7e-07 rev/day^2
Epoch rev:           85172
Checksum:              275

Satellite: NOAA-14
Catalog number: 23455
Epoch time:      10203.52772370
Element set:     133
Inclination:      098.8774 deg
RA of node:       284.0246 deg
Eccentricity:    0.0009952
Arg of perigee:   131.5149 deg
Mean anomaly:     228.6878 deg
Mean motion:   14.13790434 rev/day
Decay rate:        2.4e-07 rev/day^2
Epoch rev:           80249
Checksum:              305

Satellite: NOAA-15
Catalog number: 25338
Epoch time:      10203.75711618
Element set:     455
Inclination:      098.6204 deg
RA of node:       190.0468 deg
Eccentricity:    0.0010251
Arg of perigee:   336.8674 deg
Mean anomaly:     023.2021 deg
Mean motion:   14.24842078 rev/day
Decay rate:        1.1e-07 rev/day^2
Epoch rev:           63381
Checksum:              270

Satellite: RESURS
Catalog number: 25394
Epoch time:      10202.77272224
Element set:     558
Inclination:      098.3041 deg
RA of node:       218.9692 deg
Eccentricity:    0.0002218
Arg of perigee:   099.9757 deg
Mean anomaly:     260.1667 deg
Mean motion:   14.24206268 rev/day
Decay rate:       -1.2e-07 rev/day^2
Epoch rev:           62527
Checksum:              299

Satellite: FENGYUN1
Catalog number: 25730
Epoch time:      10202.90805683
Element set:      94
Inclination:      098.7856 deg
RA of node:       166.9590 deg
Eccentricity:    0.0021576
Arg of perigee:   165.0683 deg
Mean anomaly:     195.1123 deg
Mean motion:   14.08206700 rev/day
Decay rate:       4.34e-06 rev/day^2
Epoch rev:           57657
Checksum:              304

Satellite: OKEAN-0
Catalog number: 25860
Epoch time:      10203.72416469
Element set:      53
Inclination:      097.8348 deg
RA of node:       175.2190 deg
Eccentricity:    0.0001234
Arg of perigee:   042.9210 deg
Mean anomaly:     317.2087 deg
Mean motion:   14.73650055 rev/day
Decay rate:        4.3e-07 rev/day^2
Epoch rev:           59213
Checksum:              268

Satellite: NOAA-16
Catalog number: 26536
Epoch time:      10203.71327107
Element set:     932
Inclination:      099.1699 deg
RA of node:       222.0187 deg
Eccentricity:    0.0009789
Arg of perigee:   234.8292 deg
Mean anomaly:     125.1948 deg
Mean motion:   14.12567338 rev/day
Decay rate:      -2.92e-06 rev/day^2
Epoch rev:           50684
Checksum:              322

Satellite: NOAA-17
Catalog number: 27453
Epoch time:      10203.68641516
Element set:     929
Inclination:      098.4286 deg
RA of node:       252.6973 deg
Eccentricity:    0.0012322
Arg of perigee:   038.0201 deg
Mean anomaly:     322.1862 deg
Mean motion:   14.24174647 rev/day
Decay rate:       -7.0e-08 rev/day^2
Epoch rev:           41975
Checksum:              297

Satellite: NOAA-18
Catalog number: 28654
Epoch time:      10203.67563259
Element set:     414
Inclination:      098.9505 deg
RA of node:       149.8404 deg
Eccentricity:    0.0013802
Arg of perigee:   316.4857 deg
Mean anomaly:     043.5213 deg
Mean motion:   14.11374571 rev/day
Decay rate:       1.84e-06 rev/day^2
Epoch rev:           26644
Checksum:              303

